Regional Weather Roundup
Issued by NWS

Home | Current Version | Previous Version | Text Only | Print | Product List | Glossary Off
Versions: 1 2 3 4 5 6 7 8 9 10 11 12 13 14 15 16 17 18 19 20 21 22 23 24 25 26 27 28 29 30 31 32 33 34 35 36 37 38 39 40 41 42 43 44 45 46 47 48 49 50

000
ASUS43 KFSD 050710
RWRSD

WEATHER ROUNDUP FOR SOUTH DAKOTA
NATIONAL WEATHER SERVICE SIOUX FALLS SD
200 AM CDT SUN JUL 05 2015

NOTE: "FAIR" INDICATES FEW OR NO CLOUDS BELOW 12,000 FEET WITH NO
SIGNIFICANT WEATHER AND/OR OBSTRUCTIONS TO VISIBILITY.


SDZ001>005-009-010-012>017-050800-
NORTHWEST AND NORTH CENTRAL SOUTH DAKOTA

CITY           SKY/WX    TMP DP  RH WIND       PRES   REMARKS
BUFFALO          N/A     71  53  52 CALM      29.72F
FAITH            N/A     72  64  76 SE10      29.76S
MOBRIDGE       CLEAR     73  71  93 SE7       29.70S
$$

SDZ012>016-024>037-041>051-057-063-072>074-050800-
SOUTHWEST AND SOUTH CENTRAL SOUTH DAKOTA

CITY           SKY/WX    TMP DP  RH WIND       PRES   REMARKS
RAPID CTY ARPT CLEAR     66  61  84 S5        29.83S
PIERRE         CLEAR     74  68  81 SE5       29.73R
CUSTER         CLEAR     60  54  80 CALM      30.00F
ELLSWORTH AFB  CLEAR     70  62  76 S8        29.82R
PHILIP         PTCLDY    73  62  68 W8        29.75F
PINE RIDGE     CLEAR     70  58  65 E9        29.87F
SPEARFISH      FAIR      73  52  46 E6        29.85F
WINNER         FAIR      78  63  59 S20       29.76R
$$

SDZ004>011-016>023-039-040-050800-
NORTHEAST SOUTH DAKOTA

CITY           SKY/WX    TMP DP  RH WIND       PRES   REMARKS
ABERDEEN       PTCLDY    72  67  84 SE13      29.78F
WATERTOWN      CLOUDY    71  64  78 S12       29.84S
BROOKINGS      MOCLDY    70  63  78 S14       29.89R
SISSETON         N/A     69  65  86 CALM      29.81R
$$

SDZ017-020-022-023-036>040-048>070-050800-
SOUTHEAST SOUTH DAKOTA

CITY           SKY/WX    TMP DP  RH WIND       PRES   REMARKS
SIOUX FALLS    PTCLDY    71  62  73 S15G22    29.88S
HURON          LGT RAIN  73  66  78 SE12      29.78S
CHAMBERLAIN    PTCLDY    73  67  83 SE5       29.78R
MITCHELL       CLOUDY    72  66  81 SE13      29.81S
YANKTON        CLOUDY    70  63  78 SE12      29.86S
$$

ABBREVIATIONS USED IN REMARKS
   TC - TEMPERATURE IN CELSIUS
  WCI - WIND CHILL INDEX
   HX - HEAT INDEX
  VSB - VISIBILITY




USA.gov is the U.S. government's official web portal to all federal, state and local government web resources and services.